Weather History for Forrest, WE

Change the Weather History Date:

Tuesday, January 17, 2012

  Actual Average Record
Temperature  
Mean Temperature 74 °F -  
Max Temperature 85 °F - - ()
Min Temperature 62 °F - - ()
Cooling Degree Days 8    
Growing Degree Days 24 (Base 50)    
Moisture  
Dew Point 57 °F    
Average Humidity 58    
Maximum Humidity 88    
Minimum Humidity 26    
Precipitation  
Precipitation 0.00 in - - ()
Sea Level Pressure  
Sea Level Pressure 29.91 in    
Wind  
Wind Speed 16 mph ()    
Max Wind Speed 21 mph    
Max Gust Speed 31 mph    
T = Trace of Precipitation, MM = Missing Value Source: Averaged Metar Reports

Daily Weather History Graph

Daily Weather History Graph

Search for Another Location

Airport:

Trip Planner

Search our weather history database for the weather conditions in past years. The results will help you decide how hot, cold, wet, or windy it might be!

Date:

Astronomy

Jan. 17, 2012 Rise Set
Actual Time 4:40 AM AWST 6:34 PM AWST
Civil Twilight 4:13 AM AWST 7:01 PM AWST
Nautical Twilight 3:40 AM AWST 7:33 PM AWST
Astronomical Twilight 3:05 AM AWST 8:08 PM AWST
Moon 11:38 PM AWST (1/17) 12:39 PM AWST (1/17)
Length of Visible Light 14h 47m
Length of Day
13h 54m
Last Quarter, 41% of the Moon is Illuminated
Jan 17
Last Quarter
Jan 23
New
Jan 31
First Quarter
Feb 8
Full
Feb 15
Last Quarter

Hourly Weather History & Observations

Time (AWST) Temp. Heat Index Dew Point Humidity Pressure Visibility Wind Dir Wind Speed Gust Speed Precip Events Conditions
12:00 AM 69 °F - 64 °F 78% 29.77 in - South 18.4 mph - -  
12:00 AM 68.0 °F - 64.4 °F 88% 29.77 in - South 18.4 mph - N/A   Unknown
12:16 AM 68.0 °F - 64.4 °F 88% 29.77 in - South 17.3 mph 28.8 mph N/A   Unknown
1:00 AM 69.8 °F - 64.4 °F 83% 29.77 in - South 18.4 mph - N/A   Unknown
1:09 AM 69.8 °F - 64.4 °F 83% 29.77 in - South 19.6 mph 31.1 mph N/A   Unknown
2:00 AM 69 °F - 63 °F 76% 29.78 in - South 19.6 mph - -  
2:00 AM 68.0 °F - 62.6 °F 83% 29.80 in - South 19.6 mph - N/A   Unknown
3:00 AM 68 °F - 63 °F 80% 29.80 in - South 18.4 mph - -  
3:00 AM 68.0 °F - 62.6 °F 83% 29.80 in - South 18.4 mph - N/A   Unknown
4:00 AM 68.0 °F - 62.6 °F 83% 29.86 in - South 17.3 mph - N/A   Unknown
5:00 AM 67 °F - 60 °F 73% 29.86 in - South 20.7 mph - -  
5:00 AM 66.2 °F - 60.8 °F 83% 29.86 in - South 20.7 mph - N/A   Unknown
6:00 AM 68 °F - 59 °F 67% 29.89 in - South 18.4 mph - -  
6:00 AM 68.0 °F - 59.0 °F 73% 29.89 in - South 18.4 mph - N/A   Unknown
7:00 AM 69.8 °F - 60.8 °F 73% 29.92 in - South 16.1 mph - N/A   Unknown
8:00 AM 73 °F - 57 °F 48% 29.93 in - South 17.3 mph - -  
8:00 AM 73.4 °F - 57.2 °F 57% 29.95 in - South 17.3 mph - N/A   Unknown
9:00 AM 77 °F - 58 °F 43% 29.93 in - South 16.1 mph - -  
9:00 AM 77.0 °F - 59.0 °F 54% 29.95 in - South 16.1 mph - N/A   Unknown
10:00 AM 80.6 °F 80.8 °F 57.2 °F 45% 29.95 in - SSE 16.1 mph - N/A   Unknown
11:00 AM 80 °F - 56 °F 33% 29.92 in - SSE 16.1 mph - -  
11:00 AM 80.6 °F 80.5 °F 55.4 °F 42% 29.92 in - SSE 16.1 mph - N/A   Unknown
12:00 PM 82 °F - 56 °F 30% 29.91 in - SSE 15.0 mph - -  
12:00 PM 82.4 °F 81.7 °F 55.4 °F 39% 29.92 in - SSE 15.0 mph 26.5 mph N/A   Unknown
1:00 PM 84.2 °F 83.0 °F 55.4 °F 37% 29.92 in - South 15.0 mph - N/A   Unknown
2:00 PM 85 °F - 55 °F 26% 29.91 in - SSE 15.0 mph - -  
2:00 PM 84.2 °F 83.0 °F 55.4 °F 37% 29.92 in - SSE 15.0 mph - N/A   Unknown
2:57 PM 84.2 °F 82.8 °F 53.6 °F 35% 29.92 in - SSE 17.3 mph 31.1 mph N/A   Unknown
3:00 PM 83 °F - 54 °F 26% 29.90 in - SSE 16.1 mph - -  
3:00 PM 82.4 °F 81.4 °F 53.6 °F 37% 29.92 in - SSE 16.1 mph 31.1 mph N/A   Unknown
4:00 PM 80.6 °F - 51.8 °F 37% 29.92 in - SSE 17.3 mph - N/A   Unknown
5:00 PM 78 °F - 52 °F 29% 29.94 in - SSE 18.4 mph - -  
5:00 PM 78.8 °F - 51.8 °F 39% 29.95 in - SSE 18.4 mph - N/A   Unknown
6:00 PM 74 °F - 53 °F 36% 29.97 in - SSE 19.6 mph - -  
6:00 PM 73.4 °F - 51.8 °F 47% 29.98 in - SSE 19.6 mph - N/A   Unknown
7:00 PM 69.8 °F - 53.6 °F 56% 30.01 in - SE 17.3 mph - N/A   Unknown
8:00 PM 67 °F - 53 °F 51% 30.04 in - SSE 13.8 mph - -  
8:00 PM 66.2 °F - 53.6 °F 64% 30.04 in - SSE 13.8 mph - N/A   Unknown
9:00 PM 64 °F - 54 °F 63% 30.04 in - SSE 13.8 mph - -  
9:00 PM 64.4 °F - 55.4 °F 73% 30.06 in - SSE 13.8 mph - N/A   Unknown
10:00 PM 62.6 °F - 53.6 °F 72% 30.04 in - South 11.5 mph - N/A   Unknown
11:00 PM 64 °F - 55 °F 65% 30.02 in - SSE 12.7 mph - -  
11:00 PM 64.4 °F - 55.4 °F 73% 30.04 in - SSE 12.7 mph - N/A   Unknown